Lid_Strength_Index
1 2 1 4 8 9 9 9 7 7 7 6 6 8 7 8 8 8 1 0 0 -0 -1 -1 -1 -1 -1 -1 -1 -1 -1 -1 -1 -1 -1 -1 -1 -1 -1 -1 -1 -1 -1 -1 -1 -1 -1 -1 -1
2 2 3 5 10 11 10 9 8 7 7 6 6 7 7 8 3 3 2 0 -0 -0 -1 -1 -1 -1 -1 -1 -1 -1 -1 -1 -1 -1 -1 -1 -1 -1 -1 -1 -1 -1 -1 -1 -1 -1 -1 -1 -1
1 0 5 7 9 11 9 9 8 7 6 7 7 6 7 5 3 2 1 -0 -0 -0 -1 -1 -1 -0 -1 -1 -1 -1 -1 -1 -1 -1 -1 -1 -1 -1 -1 -1 -1 -1 -1 -1 -1 -1 -1 -1 -1
2 2 4 8 9 8 8 8 8 8 6 6 6 7 5 2 2 1 0 -0 0 -0 -1 -0 -1 -1 -1 -1 -1 -1 -1 -1 -1 -1 -1 -1 -1 -1 -1 -1 -1 -1 -1 -1 -1 -1 -1 -1 -1
2 3 7 8 8 7 7 7 6 7 7 6 6 7 7 2 1 0 1 0 1 0 -1 -1 -1 -1 -1 -1 -1 -1 -1 -1 -1 -1 -1 -1 -1 -1 -1 -1 -1 -1 -1 -1 -1 -1 -1 -1 -1
5 5 9 9 8 7 6 6 6 6 6 6 6 6 5 1 1 1 0 1 0 0 -0 -1 -1 -1 -1 -1 -1 -1 -1 -1 -1 -1 -1 -1 -1 -1 -1 -1 -1 -1 -1 -1 -1 -1 -1 -1 -1
7 7 9 9 9 8 7 6 7 7 7 6 5 7 5 4 1 0 0 0 0 0 0 -0 -1 -1 -1 -1 -1 -1 -1 -1 -1 -1 -1 -1 -1 -1 -1 -1 -1 -1 -1 -1 -1 -1 -1 -1 -1
6 7 9 9 9 9 7 7 7 7 7 5 5 7 6 4 1 0 0 0 1 0 0 0 -1 -1 -1 -1 -1 -1 -1 -1 -1 -1 -1 -1 -1 -1 -1 -1 -1 -1 -1 -1 -1 -1 -1 -1 -1
7 9 10 10 10 9 7 8 6 6 7 6 5 5 4 4 1 1 1 1 1 1 0 0 -0 -1 -1 -1 -1 -1 -1 -1 -1 -1 -1 -1 -2 -2 -2 -2 -1 -1 -1 -1 -1 -1 -1 -1 -1
8 9 10 9 9 9 8 8 7 7 7 7 6 5 4 4 3 2 2 2 2 2 1 0 0 -0 -1 -1 -1 -1 -1 -1 -1 -1 -2 -2 -2 -2 -2 -1 -1 -1 -1 -1 -1 -1 -1 -2 -2
8 10 9 8 8 8 8 8 7 8 8 7 7 6 5 5 3 3 3 2 2 1 1 1 0 -0 -1 -0 -1 -1 -1 -1 -1 -2 -2 -2 -1 -2 -1 -1 -1 -2 -1 -1 -1 -2 -2 -2 -1
9 8 8 8 7 8 8 7 8 7 7 6 5 5 5 5 4 3 3 3 1 1 1 1 -0 -0 -1 -1 -0 -1 -1 -1 -1 -1 -2 -1 -1 -1 -1 -1 -1 -1 -1 -1 -1 -1 -2 -2 -2
8 8 7 6 6 6 6 7 8 8 6 5 5 5 5 5 4 4 3 2 1 1 1 1 0 -0 -0 -1 -1 -1 -1 -1 -1 -1 -2 -1 -1 -1 -1 -1 -1 -1 -1 -1 -1 -1 -1 -1 -1
6 6 6 5 6 6 7 7 7 7 6 6 6 6 5 5 4 4 3 3 0 0 0 -0 1 -0 -0 -0 -1 -0 -1 -1 -1 -1 -1 -2 -1 -1 -1 -1 -1 -1 -1 -1 -1 -1 -1 -1 -1
5 7 5 5 6 6 5 8 8 6 5 6 5 5 5 4 4 4 3 3 2 0 -0 0 0 0 -0 -0 -0 -0 -1 -1 -1 -1 -2 -2 -2 -1 -1 -1 -1 -1 -2 -2 -2 -1 -1 -1 -1
6 6 9 6 5 5 6 9 6 5 5 5 5 5 5 4 4 3 3 2 1 0 0 0 0 0 0 0 -0 -0 -0 -1 -1 -1 -1 -1 -2 -2 -1 -1 -1 -1 -1 -1 -1 -0 -0 -0 -0
7 9 9 8 5 5 6 8 5 4 5 5 5 4 4 4 3 2 2 2 1 -0 -0 0 0 1 0 0 -0 -0 -1 -0 -1 -1 -1 -1 -1 -1 -1 -1 -1 -2 -1 -1 -1 -0 -0 0 0
10 9 9 9 6 6 7 7 5 4 4 5 4 4 4 4 4 2 2 2 1 1 -0 -0 0 1 -0 0 -0 0 0 -0 -1 -1 -1 -1 -1 -1 -1 -1 -1 -1 -1 -0 -0 -0 -0 -0 0
8 8 9 8 6 7 7 7 6 5 5 5 4 4 4 4 2 2 2 1 1 0 -0 -0 0 0 0 1 2 2 2 1 0 -0 -1 -1 -1 -1 -1 -1 -1 -1 -0 -0 -1 0 0 1 -0
8 9 9 7 6 7 8 8 6 5 5 5 4 4 4 3 3 2 2 1 1 0 0 0 0 0 1 1 1 1 1 0 0 -0 -1 -1 -1 -1 -1 -1 -0 -1 -0 -0 -0 0 1 1 0
8 9 9 10 7 7 8 9 8 6 5 4 4 4 3 3 3 2 2 1 1 1 1 1 1 0 1 1 1 1 1 1 1 0 0 -0 -1 -1 -1 -1 -1 -0 -0 0 0 0 0 2 1
10 7 8 9 10 13 8 14 9 7 6 5 5 4 4 3 3 2 2 1 1 1 0 0 0 1 0 1 1 1 2 3 1 1 0 0 -0 -0 -1 -1 -1 -1 -0 -0 -0 -0 0 0 2
9 7 8 9 10 11 10 13 10 7 8 6 5 4 4 3 3 3 2 1 1 1 0 0 0 0 0 0 1 1 2 1 1 1 0 0 -0 -1 -1 -1 -1 -1 -0 -1 -0 -0 0 0 1
6 8 9 9 10 16 11 12 11 9 8 7 5 5 4 3 3 2 2 1 1 1 0 0 1 1 0 1 1 1 2 1 2 1 1 1 0 0 -1 -1 -1 -1 -1 -0 -0 -0 -0 -0 -0
7 10 17 17 18 17 10 12 10 7 6 6 5 5 4 3 3 3 2 2 1 1 1 1 0 1 1 1 1 1 1 1 1 1 1 1 1 1 0 -0 -0 -0 -1 -1 -1 -0 -0 1 2
9 11 17 21 18 15 10 14 9 6 5 5 4 4 4 4 3 3 2 2 2 1 1 1 1 1 1 1 1 1 1 1 1 1 1 1 1 1 -0 -0 -0 -0 -1 -1 -1 1 2 1 1
10 14 10 17 14 17 12 9 7 6 6 6 5 5 4 4 4 3 3 2 2 1 1 1 1 1 1 1 1 1 1 1 1 1 1 1 1 1 0 -0 -0 0 1 1 1 3 2 2 1
8 8 15 16 20 19 13 12 11 8 7 6 6 5 5 4 3 3 3 2 2 2 1 0 0 1 1 1 1 1 1 1 1 0 1 1 1 0 0 0 0 1 2 2 2 2 2 2 3
9 13 13 14 15 18 17 13 7 8 7 6 6 5 5 4 4 3 2 2 2 1 1 1 1 1 1 1 1 1 1 1 1 1 1 1 0 0 0 0 0 3 3 3 2 3 4 4 5
7 10 10 18 15 14 16 15 6 6 6 5 5 5 4 3 3 3 2 2 2 2 1 1 1 1 1 1 1 1 1 1 1 2 1 1 1 0 0 2 3 4 4 4 5 5 6 6 6